Weather History for Oconto, WI

Change the Weather History Date:

Saturday, April 27, 2013

  Actual Average Record
Temperature  
Mean Temperature 59 °F -  
Max Temperature 69 °F 61 °F 69 °F (2013)
Min Temperature 48 °F 36 °F 31 °F (2014)
Degree Days  
Heating Degree Days 6    
Growing Degree Days 9 (Base 50)    
Moisture  
Dew Point 46 °F    
Average Humidity 64    
Maximum Humidity 81    
Minimum Humidity 44    
Precipitation  
Precipitation 0.03 in - - ()
Sea Level Pressure  
Sea Level Pressure 30.11 in    
Wind  
Wind Speed 8 mph (South)    
Max Wind Speed 16 mph    
Max Gust Speed 23 mph    
Visibility 10 miles    
Events      
Averages and records for this station are not official NWS values.
T = Trace of Precipitation, MM = Missing Value Source: NWS Daily Summary

Daily Weather History Graph

Daily Weather History Graph

Search for Another Location

Airport:

Trip Planner

Search our weather history database for the weather conditions in past years. The results will help you decide how hot, cold, wet, or windy it might be!

Date:

Astronomy

Apr. 27, 2013 Rise Set
Actual Time 5:46 AM CDT 7:52 PM CDT
Civil Twilight 5:15 AM CDT 8:24 PM CDT
Nautical Twilight 4:35 AM CDT 9:03 PM CDT
Astronomical Twilight 3:52 AM CDT 9:47 PM CDT
Moon 10:26 PM CDT (4/27) 7:01 AM CDT (4/27)
Length of Visible Light 15h 09m
Length of Day
14h 05m
Waning Gibbous, 95% of the Moon is Illuminated
Apr 27
Waning Gibbous
May 2
Last Quarter
May 9
New
May 17
First Quarter
May 24
Full

Hourly Weather History & Observations

Time (CDT) Temp. Dew Point Humidity Pressure Visibility Wind Dir Wind Speed Gust Speed Precip Events Conditions
12:15 AM 55.9 °F 45.5 °F 68% 30.14 in 10.0 mi SW 9.2 mph - N/A   Clear
12:35 AM 56.5 °F 45.5 °F 67% 30.15 in 10.0 mi SW 12.7 mph 18.4 mph N/A   Scattered Clouds
12:55 AM 56.3 °F 45.1 °F 66% 30.15 in 10.0 mi SW 8.1 mph - N/A   Scattered Clouds
1:15 AM 55.9 °F 45.0 °F 67% 30.15 in 10.0 mi SW 8.1 mph 16.1 mph N/A   Scattered Clouds
1:35 AM 55.4 °F 45.0 °F 68% 30.15 in 10.0 mi SSW 4.6 mph - N/A   Clear
1:55 AM 54.3 °F 44.8 °F 70% 30.16 in 10.0 mi SW 5.8 mph - N/A   Clear
2:15 AM 53.6 °F 44.6 °F 72% 30.15 in 10.0 mi SW 5.8 mph - N/A   Clear
2:35 AM 53.1 °F 44.2 °F 72% 30.15 in 10.0 mi SW 4.6 mph - N/A   Clear
2:55 AM 53.1 °F 44.1 °F 71% 30.15 in 10.0 mi SW 4.6 mph - N/A   Clear
3:15 AM 52.7 °F 43.9 °F 72% 30.15 in 10.0 mi SW 6.9 mph - N/A   Clear
3:35 AM 52.2 °F 43.9 °F 73% 30.15 in 10.0 mi SSW 4.6 mph - N/A   Scattered Clouds
3:55 AM 52.9 °F 44.2 °F 72% 30.15 in 10.0 mi SW 5.8 mph - N/A   Overcast
4:15 AM 52.7 °F 44.2 °F 73% 30.15 in 10.0 mi SW 6.9 mph - N/A   Overcast
4:35 AM 52.0 °F 44.1 °F 74% 30.15 in 10.0 mi SW 4.6 mph - N/A   Scattered Clouds
4:55 AM 51.3 °F 44.1 °F 76% 30.15 in 10.0 mi SSW 5.8 mph - N/A   Scattered Clouds
5:15 AM 50.9 °F 44.1 °F 77% 30.15 in 10.0 mi SW 6.9 mph - N/A   Mostly Cloudy
6:35 AM 49.8 °F 44.1 °F 81% 30.16 in 10.0 mi SW 6.9 mph - N/A   Scattered Clouds
6:55 AM 50.4 °F 44.6 °F 81% 30.16 in 10.0 mi SW 6.9 mph - N/A   Clear
7:15 AM 51.1 °F 44.8 °F 79% 30.17 in 10.0 mi SW 8.1 mph - N/A   Clear
7:35 AM 52.2 °F 45.1 °F 77% 30.17 in 10.0 mi WSW 10.4 mph - N/A   Clear
7:55 AM 52.2 °F 45.1 °F 77% 30.17 in 10.0 mi SW 8.1 mph - N/A   Scattered Clouds
8:15 AM 54.0 °F 46.0 °F 75% 30.17 in 10.0 mi SW 10.4 mph - N/A   Mostly Cloudy
8:35 AM 55.6 °F 46.8 °F 72% 30.17 in 10.0 mi WSW 6.9 mph - N/A   Scattered Clouds
8:55 AM 56.8 °F 46.9 °F 69% 30.17 in 10.0 mi WSW 8.1 mph - N/A   Clear
9:15 AM 58.3 °F 47.7 °F 68% 30.16 in 10.0 mi WSW 9.2 mph - N/A   Clear
9:35 AM 59.4 °F 48.0 °F 66% 30.16 in 10.0 mi WSW 6.9 mph - N/A   Clear
9:55 AM 59.7 °F 48.2 °F 66% 30.16 in 10.0 mi SW 6.9 mph - N/A   Clear
10:15 AM 60.4 °F 48.2 °F 64% 30.16 in 10.0 mi South 8.1 mph - N/A   Clear
10:35 AM 61.7 °F 48.6 °F 62% 30.16 in 10.0 mi SW 6.9 mph - N/A   Clear
10:55 AM 62.1 °F 48.4 °F 61% 30.15 in 10.0 mi SE 6.9 mph - N/A   Clear
11:15 AM 61.5 °F 48.2 °F 62% 30.15 in 10.0 mi SE 10.4 mph - N/A   Clear
11:35 AM 62.1 °F 48.4 °F 61% 30.15 in 10.0 mi SSE 10.4 mph - N/A   Clear
11:55 AM 63.3 °F 48.6 °F 59% 30.14 in 10.0 mi SSE 9.2 mph - N/A   Clear
12:15 PM 63.7 °F 48.6 °F 58% 30.13 in 10.0 mi SSE 12.7 mph 17.3 mph N/A   Clear
12:35 PM 65.5 °F 48.7 °F 55% 30.13 in 10.0 mi SSE 12.7 mph 16.1 mph N/A   Clear
12:55 PM 65.8 °F 48.4 °F 53% 30.12 in 10.0 mi South 11.5 mph - N/A   Clear
1:15 PM 67.6 °F 48.0 °F 49% 30.12 in 10.0 mi South 10.4 mph 16.1 mph N/A   Clear
1:35 PM 68.2 °F 46.9 °F 47% 30.11 in 10.0 mi South 11.5 mph 19.6 mph N/A   Clear
1:55 PM 67.8 °F 45.3 °F 44% 30.11 in 10.0 mi South 15.0 mph 18.4 mph N/A   Clear
2:15 PM 68.5 °F 45.7 °F 44% 30.10 in 10.0 mi South 16.1 mph 23.0 mph N/A   Clear
2:35 PM 69.1 °F 46.8 °F 45% 30.10 in 10.0 mi South 12.7 mph 23.0 mph N/A   Clear
2:55 PM 69.3 °F 46.6 °F 44% 30.09 in 10.0 mi SSE 13.8 mph 19.6 mph N/A   Clear
3:15 PM 67.5 °F 48.0 °F 50% 30.09 in 10.0 mi South 12.7 mph 20.7 mph N/A   Clear
3:35 PM 66.6 °F 48.6 °F 52% 30.08 in 10.0 mi South 13.8 mph 21.9 mph N/A   Clear
3:55 PM 65.7 °F 48.0 °F 53% 30.07 in 10.0 mi SSE 13.8 mph 20.7 mph N/A   Clear
4:15 PM 65.5 °F 48.0 °F 53% 30.07 in 10.0 mi SSE 13.8 mph 19.6 mph N/A   Clear
4:35 PM 65.3 °F 47.8 °F 53% 30.06 in 10.0 mi South 13.8 mph 19.6 mph N/A   Clear
4:55 PM 64.9 °F 47.7 °F 54% 30.06 in 10.0 mi SSE 12.7 mph 17.3 mph N/A   Clear
5:15 PM 64.9 °F 47.7 °F 54% 30.05 in 10.0 mi South 9.2 mph - N/A   Clear
5:35 PM 64.6 °F 47.7 °F 54% 30.05 in 10.0 mi SSE 10.4 mph - N/A   Clear
5:55 PM 63.9 °F 47.1 °F 54% 30.04 in 10.0 mi SSE 10.4 mph - N/A   Clear
6:15 PM 61.9 °F 47.3 °F 59% 30.04 in 10.0 mi SSE 9.2 mph - N/A   Clear
6:35 PM 60.4 °F 46.4 °F 60% 30.04 in 10.0 mi SSE 9.2 mph - N/A   Clear
6:55 PM 59.5 °F 45.9 °F 61% 30.04 in 10.0 mi South 8.1 mph - N/A   Clear
7:15 PM 58.1 °F 45.1 °F 62% 30.04 in 10.0 mi South 9.2 mph - N/A   Clear
7:35 PM 57.2 °F 44.6 °F 63% 30.04 in 10.0 mi South 8.1 mph - N/A   Clear
7:55 PM 55.9 °F 43.9 °F 64% 30.04 in 10.0 mi South 8.1 mph - N/A   Clear
8:15 PM 55.0 °F 43.7 °F 66% 30.03 in 10.0 mi South 8.1 mph - N/A   Clear
8:35 PM 55.4 °F 42.8 °F 63% 30.04 in 10.0 mi South 6.9 mph - N/A   Clear
8:55 PM 54.7 °F 43.2 °F 65% 30.04 in 10.0 mi South 4.6 mph - N/A   Clear
9:15 PM 54.0 °F 43.2 °F 67% 30.04 in 10.0 mi SSE 4.6 mph - N/A   Clear
9:35 PM 53.8 °F 43.2 °F 67% 30.04 in 10.0 mi South 3.5 mph - N/A   Clear
9:55 PM 53.6 °F 42.8 °F 67% 30.04 in 10.0 mi South 3.5 mph - N/A   Clear
10:15 PM 53.6 °F 42.3 °F 65% 30.04 in 10.0 mi Calm Calm - N/A   Clear
10:35 PM 52.7 °F 41.5 °F 66% 30.04 in 10.0 mi SSE 3.5 mph - N/A   Clear
10:55 PM 51.6 °F 40.8 °F 67% 30.03 in 10.0 mi Calm Calm - N/A   Clear
11:15 PM 52.0 °F 39.7 °F 63% 30.03 in 10.0 mi South 3.5 mph - N/A   Clear
11:35 PM 50.9 °F 39.4 °F 65% 30.02 in 10.0 mi South 3.5 mph - N/A   Clear
11:55 PM 48.2 °F 39.9 °F 73% 30.01 in 10.0 mi Calm Calm - N/A   Clear